User: anonymous   Login
Location: Muenchen
(48.1800°N, 11.5800°E)
Time: 19:39:59
(UTC+02:00)
Language:

Cosmos 2233 Rocket - Orbit

View from above orbital plane
View from above orbital plane
View from above satellite
View from above satellite

Ground track
Ground track

The orbit data is extracted from the following two-line orbital elements,

1 22488U 93008B   16176.90350203 -.00000041  00000-0 -56288-4 0  9997
2 22488  82.9416 344.3069 0026227 144.0920  20.5960 13.77699544175060
Epoch (UTC): 24 June 2016 21:41:02
Eccentricity: 0.0026227
inclination: 82.9416°
perigee height: 953 km
apogee height: 991 km
right ascension of ascending node: 344.3069°
argument of perigee: 144.0920°
revolutions per day: 13.77699544
mean anomaly at epoch: 20.5960°
orbit number at epoch: 17506

The dashed part of the orbit path shows where the satellite is in the earth's shadow,  

DLR